This is the latest recevied weather packets stored in our database for station/object M0OAB-1. If no packets are shown the sender has not sent any weather packets the latest 10 day(s).
| Time | Temp. | Humidity | Pressure | Rain* | Wind** | Luminosity | Snow |
|---|---|---|---|---|---|---|---|
| 1778156045 | 14.44° C | 59% | 1001.8 hPa | 0 mm | - | - | - |
| 1778155925 | 14.44° C | 58% | 1001.9 hPa | 0 mm | - | - | - |
| 1778155325 | 15° C | 59% | 1002 hPa | 0 mm | - | - | - |
| 1778154965 | 15° C | 58% | 1001.9 hPa | 0 mm | - | - | - |
| 1778154485 | 15° C | 60% | 1001.9 hPa | 0 mm | - | - | - |
| 1778152685 | 15.56° C | 57% | 1002 hPa | 0 mm | - | - | - |
| 1778152205 | 15.56° C | 56% | 1002.1 hPa | 0 mm | - | - | - |
| 1778151725 | 15.56° C | 56% | 1002.2 hPa | 0 mm | - | - | - |
| 1778151365 | 15.56° C | 53% | 1002.1 hPa | 0 mm | - | - | - |
| 1778150405 | 15.56° C | 59% | 1002.2 hPa | 0 mm | - | - | - |
| 1778148725 | 14.44° C | 60% | 1002.1 hPa | 0 mm | - | - | - |
| 1778146565 | 15° C | 55% | 1002.2 hPa | 0 mm | - | - | - |
| 1778144525 | 15° C | 58% | 1002.3 hPa | 0 mm | - | - | - |
| 1778144285 | 15.56° C | 60% | 1002.3 hPa | 0 mm | - | - | - |
| 1778144165 | 15.56° C | 60% | 1002.2 hPa | 0 mm | - | - | - |
| 1778143445 | 15.56° C | 66% | 1002 hPa | 0 mm | - | - | - |
| 1778142605 | 13.89° C | 71% | 1001.8 hPa | 0 mm | - | - | - |
| 1778142125 | 12.78° C | 69% | 1001.8 hPa | 0 mm | - | - | - |
| 1778141765 | 12.78° C | 70% | 1001.8 hPa | 0 mm | - | - | - |
| 1778140205 | 12.22° C | 75% | 1001.7 hPa | 0 mm | - | - | - |
| 1778137926 | 10.56° C | 75% | 1001.6 hPa | 0 mm | - | - | - |
| 1778137685 | 10.56° C | 76% | 1001.6 hPa | 0 mm | - | - | - |
| 1778137205 | 10.56° C | 78% | 1001.6 hPa | 0 mm | - | - | - |
| 1778136365 | 10° C | 79% | 1001.5 hPa | 0 mm | - | - | - |
| 1778135645 | 9.44° C | 79% | 1001.7 hPa | 0 mm | - | - | - |
* Rain latest hour (hover to see other rain measurements)
** Current wind speed in m/s (hover to see current wind gust speed)